Regional Weather Roundup
Issued by NWS Charleston, SC

Current Version | Previous Version | Graphics & Text | Print | Product List | Glossary On
Versions: 1 2 3 4 5 6 7 8 9 10 11 12 13 14 15 16 17 18 19 20 21 22 23 24 25 26 27 28 29 30 31 32 33 34 35 36 37 38 39 40 41 42 43 44 45 46 47 48 49 50
000 ASUS42 KCHS 121111 RWRCHS REGIONAL WEATHER ROUNDUP NATIONAL WEATHER SERVICE CHARLESTON SC 600 AM EST TUE DEC 12 2017 NOTE: "FAIR" INDICATES FEW OR NO CLOUDS BELOW 12,000 FEET WITH NO SIGNIFICANT WEATHER AND/OR OBSTRUCTIONS TO VISIBILITY. NOT ALL STATIONS ARE QUALITY CONTROLLED. USE DATA WITH CAUTION... ESPECIALLY DEWPOINT OBSERVATIONS. SCZ027-030-031-034>040-042>050-121200- ...SOUTHEAST SOUTH CAROLINA... CITY SKY/WX TMP DP RH WIND PRES REMARKS N CHARLESTON CLEAR 44 38 79 SW9 29.88F WATERFRONT PRK NOT AVBL JOHNS ISLAND FAIR 46 39 76 SW7 29.90F PINOPOLIS NOT AVBL MONCKS CORNER FAIR 45 36 70 SW8 29.87F SUMMERVILLE FAIR 37 36 93 S3 29.89F BEAUFORT MCAS CLEAR 46 41 82 SW6 29.90F BEAUFORT ARPT FAIR 46 41 81 SW8 29.91S HILTON HEAD IS NOT AVBL WALTERBORO SUNNY 41 36 81 SW6 29.89F ALLENDALE FAIR 41 37 87 CALM 29.87F ...SOUTHERN MIDLANDS AND PEE DEE... CITY SKY/WX TMP DP RH WIND PRES REMARKS GEORGETOWN FAIR 43 37 81 SW9 29.88S KINGSTREE FAIR 41 36 81 CALM 29.84F ORANGEBURG CLEAR 40 35 83 SW9 29.85F WCI 34 BARNWELL N/A 41 37 87 CALM 29.86F AIKEN FAIR 39 34 81 S6 29.85F WCI 35 MANNING FAIR 45 30 57 MISG 29.85F COLUMBIA CLOUDY 43 37 79 W6 29.82F SUMTER PTCLDY 45 35 68 SW12 29.80F FLORENCE CLEAR 42 36 79 SW8 29.82S MYRTLE BEACH CLEAR 48 37 65 SW12 29.87F N MYRTLE BEACH CLEAR 46 36 68 SW10 29.85F $$ GAZ063-065-086>088-099>101-113>116-118-119-134>141-150-121200- ...SOUTHEAST GEORGIA... CITY SKY/WX TMP DP RH WIND PRES REMARKS SAVANNAH ARPT CLEAR 43 40 89 SW7 29.92F HUNTER AAF CLEAR 44 39 83 SW8 29.90F FORT STEWART CLEAR 41 38 89 S5 29.91F STATESBORO CLEAR 45 37 74 SW5 29.90S SYLVANIA SUNNY 44 40 86 W3 29.90F CLAXTON FAIR 46 41 83 S3 29.91F ...CSRA...CENTRAL AND FAR SOUTHEAST GEORGIA... CITY SKY/WX TMP DP RH WIND PRES REMARKS THOMSON PTCLDY 43 36 78 W8 29.89F AUGUSTA-BUSH CLEAR 46 37 71 SW8 29.84F AUGUSTA-DANIEL CLEAR 46 36 68 VRB6 29.84F SWAINSBORO FAIR 41 37 87 CALM 29.90S VIDALIA CLEAR 43 41 93 SW6 29.90F EASTMAN FAIR 44 35 71 CALM 29.92F HAZLEHURST FAIR 46 38 74 SW7 29.90F ALMA CLEAR 40 38 93 SW3 29.93F WAYCROSS CLEAR 45 42 90 SW7 29.96F JESUP NOT AVBL BAXLEY FAIR 37 37 100 S5 29.93F WCI 34 BRUNSWICK CLEAR 46 43 87 SW10 29.97S SAINT SIMONS CLEAR 47 45 93 SW8 29.96F $$ SCZ027-028-034-036>038-045-046-048>050-GAZ119-141-121200- ...LAKE AND SUPPLEMENTAL COASTAL OBSERVATIONS... STATION/POSITION TIME TEMP WIND PRES WAVE SWELL AIR SEA DIR/SP/G HT/PER HT/PER/DIR (UTC) (F) (DEG/KT/KT) (MB) (FT/S) (FT/S/D) WINYAH BAY 0945 49 230/ 8 1012.0 LAKE MURRAY 1020 49 230/ 10/ 14 1008.8F ACE BASIN NERRS 0945 46 CALM 1013.0 FORT PULASKI 1042 48 55 250/ 7/ 12 1013.4F SAPELO ISLAND NOT AVBL $$ ANZ835-935-AMZ111-154-330-350-352-354-370-450-454-472-121200- ...C-MAN AND BUOY OBSERVATIONS... STATION/POSITION TIME TEMP WIND PRES WAVE SWELL AIR SEA DIR/SP/G HT/PER HT/PER/DIR (UTC) (F) (DEG/KT/KT) (MB) (FT/S) (FT/S/D) BUOY 41004 1040 250/ 23/ 27 1012.2F BUOY 41008 0950 56 61 230/ 19/ 23 1014.0 4/ 4 2/120/ 9 FOLLY BEACH CMAN 1000 51 230/ 8/ 11 1013.3F CAPERS NEARSHORE NOT AVBL FRIPP NEARSHORE 1008 50 57 230/ 21/ 29 1012.4F STATION/POSITION TIME TEMP WIND PRES WAVE SWELL AIR SEA DIR/SP/G HT/PER HT/PER/DIR (UTC) (F) (DEG/KT/KT) (MB) (FT/S) (FT/S/D) 5E ST. MARYS GA 1030 61 N/A 2/ 9 FRYING PAN BUOY 1050 62 66 250/ 21/ 27 1011.2F 7/ 6 BUOY 41025 1050 61 74 230/ 21/ 27 1010.4F 4/ 5 2/170/ 9 CAPE LOOKOUT NC 1000 230/ 12/ 18 1011.1F BUOY 41002 0950 68 76 230/ 19/ 23 1013.7 5/ 6 2/ 80/ 8 BUOY 41010 NOT AVBL ST AUGUSTINE FL 1100 47 61 230/ 7/ 8 1016.8R $$

USA.gov is the U.S. government's official web portal to all federal, state and local government web resources and services.